Location: Unspecified
(0.0000°N, 0.0000°E)
Time: 19:52:42
(UTC+02:00)

Cosmos 1833 Rocket - Visible Passes

Search period start: 19 September 2014 00:00
Search period end: 29 September 2014 00:00
Orbit: 833 x 840 km, 71.0° (Epoch: 18 September)

Date Brightness Start Highest point End Pass type
(mag) Time Alt. Az. Time Alt. Az. Time Alt. Az.
19 Sep 5.1 21:31:54 10° WNW 21:36:02 21° WSW 21:40:11 10° SSW visible
20 Sep 5.0 21:15:04 10° NW 21:19:27 24° WSW 21:23:52 10° SSW visible
21 Sep 4.9 20:58:15 10° NW 21:02:52 26° WSW 21:07:30 10° SSW visible
22 Sep 4.8 20:41:29 10° NW 20:46:17 29° WSW 20:51:07 10° SSW visible
23 Sep 4.7 20:24:44 10° NW 20:29:42 33° WSW 20:34:42 10° SSW visible
24 Sep 3.4 07:24:08 10° S 07:29:39 61° ESE 07:35:09 10° NNE visible
24 Sep 4.5 20:08:00 10° NW 20:13:07 37° WSW 20:18:15 10° S visible
25 Sep 3.6 07:07:37 10° S 07:13:05 54° ESE 07:18:30 10° NNE visible
26 Sep 3.7 06:51:07 10° S 06:56:30 48° ESE 07:01:51 10° NNE visible
27 Sep 3.9 06:34:38 10° S 06:39:55 43° ESE 06:45:10 10° NE visible
28 Sep 4.1 06:18:10 10° S 06:23:20 38° ESE 06:28:28 10° NE visible
